Location: Stanley
(44.2150°N, 114.9367°W)
Time: 16:17:04
(UTC+00:00)

ISS - Visible Passes

Search period start: 27 November 2022 00:00
Search period end: 07 December 2022 00:00
Orbit: 411 x 421 km, 51.6° (Epoch: 27 November)

Date Brightness Start Highest point End Pass type
(mag) Time Alt. Az. Time Alt. Az. Time Alt. Az.
27 Nov -2.1 01:23:36 10° WNW 01:26:19 23° N 01:27:29 19° NNE visible
28 Nov -2.3 00:34:40 10° WNW 00:37:31 25° NNW 00:40:22 10° NE visible
28 Nov -1.6 02:12:10 10° NW 02:13:39 19° NNW 02:13:39 19° NNW visible
29 Nov -2.2 01:23:25 10° NW 01:26:06 22° N 01:26:56 20° NNE visible
30 Nov -2.1 00:34:33 10° NW 00:37:14 22° N 00:39:55 10° NE visible
30 Nov -1.8 02:11:32 10° NW 02:13:08 22° NNW 02:13:08 22° NNW visible
01 Dec -2.6 01:22:51 10° NW 01:25:46 27° NNE 01:26:28 25° NE visible
02 Dec -2.3 00:34:05 10° NW 00:36:52 24° N 00:39:38 10° ENE visible
02 Dec -2.4 02:10:44 10° NW 02:12:46 33° NW 02:12:46 33° NW visible
03 Dec -3.3 01:22:01 10° NW 01:25:13 42° NNE 01:26:15 32° ENE visible
03 Dec -0.4 02:58:52 10° WNW 02:59:09 12° WNW 02:59:09 12° WNW visible
04 Dec -2.9 00:33:17 10° NW 00:36:20 32° NNE 00:39:22 10° E visible
04 Dec -2.9 02:09:55 10° WNW 02:12:46 50° WSW 02:12:46 50° WSW visible
05 Dec -3.9 01:21:04 10° WNW 01:24:25 89° N 01:26:35 20° ESE visible
05 Dec -0.3 02:59:05 10° WSW 02:59:31 11° WSW 02:59:31 11° WSW visible
06 Dec -3.7 00:32:16 10° NW 00:35:34 58° NNE 00:38:50 10° ESE visible
06 Dec -1.4 02:09:25 10° W 02:12:03 21° SW 02:13:37 16° S visible
